Location: Krasnoyarskiy Pitomnik
(51.1333°N, 71.6167°E)
Time: 15:06:01
(UTC+00:00)

YAOGAN 3 - Pass Details

Date: 22 October 2021
Orbit: 624 x 627 km, 98.0° (Epoch: 27 November)

Event Time Altitude Azimuth Distance (km) Brightness Sun altitude
Rises 13:10:56 0° 159° (SSE) 2,903 7.8 -10.8°
Reaches altitude 10° 13:13:07 10° 158° (SSE) 2,000 7.0 -11.1°
Maximum altitude 13:17:28 76° 74° (ENE) 652 4.5 -11.8°
Drops below altitude 10° 13:21:51 10° 349° (NNW) 2,016 7.3 -12.5°
Sets 13:24:03 0° 348° (NNW) 2,927 8.2 -12.8°
